Location: Newark
(11.6000°N, 43.1667°E)
Time: 09:27:37
(UTC+00:00)

N. Korean satellite - Visible Passes

Search period start: 18 September 2019 00:00
Search period end: 28 September 2019 00:00
Orbit: 455 x 509 km, 97.2° (Epoch: 17 September)

Date Brightness Start Highest point End Pass type
(mag) Time Alt. Az. Time Alt. Az. Time Alt. Az.
19 Sep 8.5 02:25:45 10° NE 02:28:51 33° E 02:32:00 10° SSE visible
20 Sep 9.9 02:01:59 10° ENE 02:03:39 13° E 02:05:21 10° SE visible
20 Sep 10.2 15:28:46 10° SW 15:30:26 13° W 15:32:05 10° WNW visible
23 Sep 9.1 02:18:27 10° NE 02:21:21 25° E 02:24:17 10° SSE visible
24 Sep 10.5 01:56:00 10° E 01:56:09 10° E 01:56:17 10° E visible
24 Sep 9.9 15:20:38 10° SW 15:22:57 16° W 15:25:14 10° WNW visible
26 Sep 7.5 02:35:38 10° NNE 02:39:01 53° E 02:42:27 10° S visible
27 Sep 9.6 02:11:13 10° NE 02:13:49 20° E 02:16:27 10° SSE visible
